WE0DX-1 Weather Reports


Display with metric or nautical units.
time (UTC)temp
F
wind
direction
speed
MPH
gust
MPH
rain 1hr
in
rain 24hr
in
rain mn
in
humidity
%
barometer
mb
20260901161104 91 115 0.0 6.0 0.00 0.00 0.00 47 1016.3
20260901160601 91 98 0.0 0.0 0.00 0.00 0.00 50 1016.4
20260901160050 91 244 2.0 3.0 0.00 0.00 0.00 48 1016.3
20260901155549 90 118 1.0 5.0 0.00 0.00 0.00 49 1016.0
20260901155045 90 141 0.0 0.0 0.00 0.00 0.00 48 1016.1
20260901154544 90 126 3.0 7.0 0.00 0.00 0.00 49 1016.0
20260901154039 90 145 0.0 0.0 0.00 0.00 0.00 50 1015.8
20260901153534 89 241 0.0 1.0 0.00 0.00 0.00 51 1015.9
20260901153029 89 230 1.0 1.0 0.00 0.00 0.00 51 1015.9
20260901152528 89 167 0.0 0.0 0.00 0.00 0.00 52 1016.0
20260901152027 89 104 0.0 0.0 0.00 0.00 0.00 51 1016.1
20260901151523 88 198 0.0 0.0 0.00 0.00 0.00 51 1015.8
20260901151022 88 115 0.0 1.0 0.00 0.00 0.00 53 1016.1
20260901150520 87 121 0.0 2.0 0.00 0.00 0.00 54 1016.3
20260901150019 86 159 3.0 7.0 0.00 0.00 0.00 55 1015.9
20260901145513 86 108 0.0 0.0 0.00 0.00 0.00 56 1015.9
20260901145012 86 93 0.0 0.0 0.00 0.00 0.00 56 1015.9
20260901144508 86 125 0.0 0.0 0.00 0.00 0.00 55 1016.1
20260901144003 86 135 0.0 0.0 0.00 0.00 0.00 55 1016.1
20260901143459 86 107 0.0 0.0 0.00 0.00 0.00 54 1016.0
20260901142955 86 141 0.0 0.0 0.00 0.00 0.00 55 1016.1
20260901142449 85 129 0.0 0.0 0.00 0.00 0.00 57 1015.9
20260901141944 84 144 0.0 0.0 0.00 0.00 0.00 57 1016.0
20260901141438 84 95 0.0 0.0 0.00 0.00 0.00 58 1016.0
20260901140933 84 122 0.0 0.0 0.00 0.00 0.00 56 1016.0
20260901140431 84 114 0.0 0.0 0.00 0.00 0.00 57 1016.1
20260901135926 84 81 0.0 5.0 0.00 0.00 0.00 58 1016.1
20260901135420 83 106 0.0 0.0 0.00 0.00 0.00 59 1016.1
20260901134917 82 103 3.0 5.0 0.00 0.00 0.00 59 1016.3
20260901134412 82 94 0.0 0.0 0.00 0.00 0.00 59 1015.9
20260901133912 82 124 0.0 0.0 0.00 0.00 0.00 61 1016.3
20260901133406 82 146 0.0 1.0 0.00 0.00 0.00 59 1016.3
20260901132905 81 123 0.0 0.0 0.00 0.00 0.00 62 1016.4
20260901132400 81 120 0.0 0.0 0.00 0.00 0.00 62 1016.4
20260901131858 81 87 0.0 0.0 0.00 0.00 0.00 60 1016.1
20260901131358 81 101 2.0 2.0 0.00 0.00 0.00 61 1016.1
20260901130853 80 120 0.0 0.0 0.00 0.00 0.00 62 1016.6
20260901130348 80 137 0.0 0.0 0.00 0.00 0.00 61 1016.0
20260901125846 80 128 2.0 8.0 0.00 0.00 0.00 61 1016.0
20260901125345 80 104 0.0 0.0 0.00 0.00 0.00 61 1016.3
20260901124840 80 125 0.0 0.0 0.00 0.00 0.00 61 1016.1
20260901124336 80 110 0.0 0.0 0.00 0.00 0.00 62 1016.3
20260901123835 80 97 0.0 0.0 0.00 0.00 0.00 62 1016.1
20260901123330 80 105 0.0 1.0 0.00 0.00 0.00 61 1015.9
20260901122829 80 110 0.0 0.0 0.00 0.00 0.00 61 1015.7
20260901122329 80 109 0.0 0.0 0.00 0.00 0.00 61 1015.9
20260901121828 80 99 0.0 0.0 0.00 0.00 0.00 61 1015.7
20260901121323 79 99 0.0 0.0 0.00 0.00 0.00 61 1015.8
20260901120818 79 106 0.0 0.0 0.00 0.00 0.00 62 1015.8
20260901120313 79 134 0.0 0.0 0.00 0.00 0.00 62 1015.6
20260901115809 79 108 0.0 0.0 0.00 0.00 0.00 62 1015.5
20260901115306 79 113 0.0 0.0 0.00 0.00 0.00 61 1015.8
20260901114801 79 108 0.0 0.0 0.00 0.00 0.00 62 1015.3
20260901114257 79 109 0.0 0.0 0.00 0.00 0.00 62 1015.6
20260901113755 79 110 0.0 0.0 0.00 0.00 0.00 61 1015.3
20260901113249 79 128 0.0 0.0 0.00 0.00 0.00 61 1015.4
20260901112749 79 137 0.0 0.0 0.00 0.00 0.00 61 1015.4
20260901112244 80 100 0.0 1.0 0.00 0.00 0.00 60 1015.3
20260901111739 80 110 0.0 2.0 0.00 0.00 0.00 60 1015.3
20260901111237 80 167 0.0 0.0 0.00 0.00 0.00 60 1015.2
20260901110732 80 171 0.0 0.0 0.00 0.00 0.00 59 1015.3
20260901110227 80 97 0.0 0.0 0.00 0.00 0.00 59 1015.2
20260901105724 80 152 0.0 0.0 0.00 0.00 0.00 59 1015.2
20260901105223 80 139 0.0 0.0 0.00 0.00 0.00 59 1015.1
20260901104720 80 92 0.0 0.0 0.00 0.00 0.00 59 1015.0
20260901104215 80 251 0.0 1.0 0.00 0.00 0.00 59 1015.0
20260901103714 80 104 0.0 0.0 0.00 0.00 0.00 59 1015.0
20260901103209 80 106 0.0 0.0 0.00 0.00 0.00 59 1014.9
20260901102704 80 107 0.0 0.0 0.00 0.00 0.00 59 1015.0
20260901102203 80 103 0.0 0.0 0.00 0.00 0.00 59 1014.7
20260901101659 80 99 0.0 0.0 0.00 0.00 0.00 59 1014.9
20260901101159 80 105 0.0 0.0 0.00 0.00 0.00 59 1014.8
20260901100653 80 108 0.0 0.0 0.00 0.00 0.00 59 1014.7
20260901100148 80 101 0.0 0.0 0.00 0.00 0.00 59 1015.1
20260901095646 80 94 0.0 0.0 0.00 0.00 0.00 59 1014.9
20260901095144 80 106 0.0 0.0 0.00 0.00 0.00 59 1014.9
20260901094638 80 159 0.0 0.0 0.00 0.00 0.00 58 1014.7
20260901094133 80 90 0.0 0.0 0.00 0.00 0.00 59 1014.8
20260901093628 80 117 0.0 0.0 0.00 0.00 0.00 59 1014.6
20260901093127 79 122 0.0 0.0 0.00 0.00 0.00 60 1014.7
20260901092623 80 154 0.0 0.0 0.00 0.00 0.00 60 1014.7
20260901092119 80 104 0.0 0.0 0.00 0.00 0.00 58 1014.3
20260901091614 81 103 0.0 0.0 0.00 0.00 0.00 57 1014.4
20260901091110 81 120 0.0 0.0 0.00 0.00 0.00 56 1014.8
20260901090609 82 111 0.0 0.0 0.00 0.00 0.00 56 1014.3
20260901090105 82 112 0.0 0.0 0.00 0.00 0.00 55 1014.5
20260901085601 82 109 0.0 0.0 0.00 0.00 0.00 55 1014.3
20260901085056 82 115 0.0 1.0 0.00 0.00 0.00 54 1014.2
20260901084552 82 112 0.0 0.0 0.00 0.00 0.00 55 1014.2
20260901084048 82 118 0.0 0.0 0.00 0.00 0.00 54 1014.3
20260901083547 82 105 0.0 0.0 0.00 0.00 0.00 54 1014.1
20260901083045 82 122 0.0 0.0 0.00 0.00 0.00 54 1014.1
20260901082541 82 108 0.0 0.0 0.00 0.00 0.00 54 1014.2
20260901082036 82 99 0.0 0.0 0.00 0.00 0.00 53 1014.1
20260901081531 82 113 0.0 0.0 0.00 0.00 0.00 54 1014.1
20260901081026 82 125 0.0 0.0 0.00 0.00 0.00 54 1014.2
20260901080525 82 108 0.0 0.0 0.00 0.00 0.00 53 1014.0
20260901080020 82 108 0.0 0.0 0.00 0.00 0.00 53 1014.2
20260901075516 82 98 0.0 0.0 0.00 0.00 0.00 54 1014.2
20260901075015 82 124 0.0 0.0 0.00 0.00 0.00 53 1014.1
20260901074514 82 98 0.0 0.0 0.00 0.00 0.00 54 1014.3
20260901074009 82 101 0.0 0.0 0.00 0.00 0.00 53 1014.3
20260901073506 82 101 0.0 0.0 0.00 0.00 0.00 54 1014.4
20260901073001 82 101 0.0 0.0 0.00 0.00 0.00 54 1014.3
20260901072456 82 101 0.0 0.0 0.00 0.00 0.00 54 1014.3
20260901071950 82 95 0.0 0.0 0.00 0.00 0.00 54 1014.2
20260901071449 82 94 0.0 0.0 0.00 0.00 0.00 53 1014.4
20260901070944 82 94 0.0 0.0 0.00 0.00 0.00 53 1014.4
20260901070439 82 94 0.0 0.0 0.00 0.00 0.00 53 1014.5
20260901065937 82 102 0.0 0.0 0.00 0.00 0.00 53 1014.4
20260901065434 82 103 0.0 0.0 0.00 0.00 0.00 53 1014.5
20260901064928 82 91 0.0 0.0 0.00 0.00 0.00 54 1014.5
20260901064425 82 99 0.0 0.0 0.00 0.00 0.00 53 1014.4
20260901063922 82 100 0.0 0.0 0.00 0.00 0.00 53 1014.6
20260901063418 82 88 0.0 0.0 0.00 0.00 0.00 53 1014.5
20260901062914 82 94 0.0 0.0 0.00 0.00 0.00 53 1014.5
20260901062410 83 94 0.0 0.0 0.00 0.00 0.00 53 1014.7
20260901061905 82 100 0.0 0.0 0.00 0.00 0.00 53 1014.5
20260901061401 82 99 0.0 0.0 0.00 0.00 0.00 53 1014.7
20260901060856 82 99 0.0 0.0 0.00 0.00 0.00 53 1014.6
20260901060352 83 99 0.0 0.0 0.00 0.00 0.00 53 1014.6
20260901055851 83 94 0.0 0.0 0.00 0.00 0.00 52 1014.6
20260901055347 84 111 0.0 0.0 0.00 0.00 0.00 51 1014.7
20260901054844 83 111 0.0 1.0 0.00 0.00 0.00 51 1014.7
20260901054341 83 101 0.0 0.0 0.00 0.00 0.00 52 1014.7
20260901053836 84 101 0.0 0.0 0.00 0.00 0.00 52 1014.8
20260901053331 84 100 0.0 0.0 0.00 0.00 0.00 51 1014.7
20260901052827 84 98 0.0 0.0 0.00 0.00 0.00 51 1014.5
20260901052322 84 98 0.0 0.0 0.00 0.00 0.00 51 1014.6
20260901051821 84 100 0.0 0.0 0.00 0.00 0.00 51 1014.7
20260901051316 84 97 0.0 0.0 0.00 0.00 0.00 51 1014.5
20260901050811 84 116 0.0 0.0 0.00 0.00 0.00 51 1014.6
20260901050306 84 119 0.0 0.0 0.00 0.00 0.00 51 1014.5
20260901045756 84 127 0.0 0.0 0.00 0.00 0.00 51 1014.4
20260901045255 85 106 0.0 0.0 0.00 0.00 0.00 51 1014.7
20260901044746 85 100 0.0 0.0 0.00 0.00 0.00 51 1014.4
20260901044242 85 102 0.0 0.0 0.00 0.00 0.00 50 1014.5
20260901043737 85 98 0.0 0.0 0.00 0.00 0.00 50 1014.5
20260901043233 85 136 0.0 0.0 0.00 0.00 0.00 50 1014.5
20260901042732 86 99 0.0 0.0 0.00 0.00 0.00 50 1014.1
20260901042227 86 95 0.0 0.0 0.00 0.00 0.00 50 1014.3
20260901041723 86 158 0.0 0.0 0.00 0.00 0.00 50 1014.1
20260901041222 86 125 0.0 0.0 0.00 0.00 0.00 49 1014.2
20260901040718 86 111 0.0 0.0 0.00 0.00 0.00 50 1014.3
20260901040216 86 120 0.0 0.0 0.00 0.00 0.00 49 1014.2
20260901035715 87 113 0.0 0.0 0.00 0.00 0.00 50 1014.3
20260901035214 87 113 0.0 0.0 0.00 0.00 0.00 49 1014.1
20260901034708 87 153 0.0 0.0 0.00 0.00 0.00 50 1014.0
20260901034203 87 99 0.0 0.0 0.00 0.00 0.00 49 1014.2
20260901033702 87 139 0.0 0.0 0.00 0.00 0.00 49 1013.9
20260901033202 87 171 0.0 0.0 0.00 0.00 0.00 51 1014.1
20260901032700 86 123 0.0 0.0 0.00 0.00 0.00 52 1013.8
20260901032155 87 112 0.0 0.0 0.00 0.00 0.00 52 1013.7
20260901031650 87 130 0.0 0.0 0.00 0.00 0.00 52 1013.9
20260901031147 87 93 0.0 0.0 0.00 0.00 0.00 52 1014.0
20260901030646 87 102 0.0 0.0 0.00 0.00 0.00 52 1013.8
20260901030141 88 179 0.0 0.0 0.00 0.00 0.00 51 1013.7
20260901025635 88 97 0.0 0.0 0.00 0.00 0.00 51 1013.8
20260901025130 88 119 0.0 0.0 0.00 0.00 0.00 51 1013.9
20260901024624 89 128 0.0 0.0 0.00 0.00 0.00 51 1013.9
20260901024123 89 108 0.0 0.0 0.00 0.00 0.00 51 1013.5
20260901023622 89 164 0.0 0.0 0.00 0.00 0.00 51 1013.8
20260901023117 89 128 0.0 0.0 0.00 0.00 0.00 51 1013.7
20260901022612 89 119 0.0 0.0 0.00 0.00 0.00 51 1013.5
20260901022108 89 106 0.0 0.0 0.00 0.00 0.00 51 1013.5
20260901021603 89 100 0.0 0.0 0.00 0.00 0.00 50 1013.5
20260901021058 89 166 0.0 0.0 0.00 0.00 0.00 50 1013.5
20260901020554 89 137 0.0 0.0 0.00 0.00 0.00 50 1013.5
20260901020049 90 101 0.0 0.0 0.00 0.00 0.00 50 1013.5
20260901015544 90 96 0.0 0.0 0.00 0.00 0.00 49 1013.4
20260901015039 90 107 0.0 0.0 0.00 0.00 0.00 50 1013.4
20260901014534 90 99 0.0 0.0 0.00 0.00 0.00 50 1013.2
20260901014030 90 92 0.0 0.0 0.00 0.00 0.00 50 1013.1
20260901013526 90 144 0.0 0.0 0.00 0.00 0.00 50 1013.2
20260901013022 90 99 0.0 0.0 0.00 0.00 0.00 49 1013.2
20260901012521 89 102 0.0 0.0 0.00 0.00 0.00 50 1013.1
20260901012016 89 102 0.0 0.0 0.00 0.00 0.00 51 1013.2
20260901011513 89 103 0.0 0.0 0.00 0.00 0.00 50 1013.2
20260901011010 90 103 0.0 0.0 0.00 0.00 0.00 49 1012.9
20260901010506 89 103 0.0 0.0 0.00 0.00 0.00 49 1013.1
20260901010005 90 103 0.0 0.0 0.00 0.00 0.00 49 1013.1
20260901005500 90 103 0.0 0.0 0.00 0.00 0.00 48 1013.2
20260901004955 90 103 0.0 0.0 0.00 0.00 0.00 49 1013.0
20260901004454 91 103 0.0 0.0 0.00 0.00 0.00 49 1012.8
20260901003949 91 103 0.0 0.0 0.00 0.00 0.00 49 1013.0
20260901003444 91 103 0.0 0.0 0.00 0.00 0.00 49 1012.9
20260901002942 92 103 0.0 0.0 0.00 0.00 0.00 48 1013.0
20260901002436 92 103 0.0 0.0 0.00 0.00 0.00 48 1012.8
20260901001931 93 103 0.0 0.0 0.00 0.00 0.00 47 1013.1
20260901001426 93 103 0.0 0.0 0.00 0.00 0.00 47 1013.0
20260901000921 94 103 0.0 0.0 0.00 0.00 0.00 46 1013.2
20260901000416 94 103 0.0 0.0 0.00 0.00 0.00 46 1013.1
20260831235915 94 103 0.0 0.0 0.00 0.00 0.00 46 1013.0
20260831235411 95 100 0.0 0.0 0.00 0.00 0.00 45 1013.0
20260831234906 95 102 0.0 0.0 0.00 0.00 0.00 45 1013.1
20260831234400 95 92 0.0 0.0 0.00 0.00 0.00 46 1012.8
20260831233856 95 106 0.0 0.0 0.00 0.00 0.00 45 1012.8
20260831233351 96 114 0.0 2.0 0.00 0.00 0.00 44 1013.0
20260831232846 96 104 0.0 0.0 0.00 0.00 0.00 44 1012.9
20260831232342 96 119 0.0 0.0 0.00 0.00 0.00 43 1013.0
20260831231838 96 109 0.0 0.0 0.00 0.00 0.00 44 1013.1
20260831231334 97 114 0.0 0.0 0.00 0.00 0.00 43 1012.9
20260831230829 97 106 0.0 0.0 0.00 0.00 0.00 43 1012.8
20260831230319 97 167 0.0 0.0 0.00 0.00 0.00 42 1012.9
20260831225818 97 105 0.0 0.0 0.00 0.00 0.00 43 1013.0
20260831225313 97 141 0.0 0.0 0.00 0.00 0.00 43 1013.1
20260831224809 97 139 0.0 0.0 0.00 0.00 0.00 42 1012.9
20260831224303 98 121 0.0 0.0 0.00 0.00 0.00 42 1012.9
20260831223758 98 345 0.0 1.0 0.00 0.00 0.00 42 1012.9
20260831223254 98 104 0.0 0.0 0.00 0.00 0.00 42 1012.9
20260831222751 98 152 1.0 1.0 0.00 0.00 0.00 41 1013.0
20260831222246 98 100 0.0 0.0 0.00 0.00 0.00 41 1012.7
20260831221741 98 121 0.0 0.0 0.00 0.00 0.00 40 1013.0
20260831221237 98 111 0.0 0.0 0.00 0.00 0.00 40 1013.0
20260831220732 98 109 0.0 0.0 0.00 0.00 0.00 41 1013.0
20260831220226 98 84 0.0 1.0 0.00 0.00 0.00 41 1012.8
20260831215721 98 167 1.0 2.0 0.00 0.00 0.00 39 1013.0
20260831215217 98 178 1.0 1.0 0.00 0.00 0.00 40 1013.1
20260831214714 98 187 1.0 1.0 0.00 0.00 0.00 42 1013.1
20260831214211 98 291 2.0 2.0 0.00 0.00 0.00 40 1013.0
20260831213706 99 137 0.0 0.0 0.00 0.00 0.00 40 1013.0
20260831213202 99 129 0.0 0.0 0.00 0.00 0.00 41 1013.0
20260831212657 99 96 0.0 1.0 0.00 0.00 0.00 40 1013.2
20260831212154 99 102 0.0 1.0 0.00 0.00 0.00 41 1013.1
20260831211652 98 193 0.0 1.0 0.00 0.00 0.00 40 1013.1
20260831211148 98 353 1.0 2.0 0.00 0.00 0.00 40 1013.0
20260831210647 99 17 0.0 1.0 0.00 0.00 0.00 40 1013.1
20260831210144 99 134 0.0 0.0 0.00 0.00 0.00 39 1012.9
20260831205642 98 348 0.0 0.0 0.00 0.00 0.00 41 1013.1
20260831205140 98 124 0.0 1.0 0.00 0.00 0.00 41 1013.2
20260831204639 99 51 0.0 0.0 0.00 0.00 0.00 42 1013.3
20260831204137 99 110 0.0 2.0 0.00 0.00 0.00 41 1013.3
20260831203632 98 220 1.0 2.0 0.00 0.00 0.00 42 1013.2
20260831203131 99 319 1.0 1.0 0.00 0.00 0.00 43 1013.3
20260831202630 99 130 1.0 1.0 0.00 0.00 0.00 41 1013.3
20260831202125 98 131 0.0 0.0 0.00 0.00 0.00 42 1013.3
20260831201624 99 252 2.0 3.0 0.00 0.00 0.00 41 1013.3
20260831201120 98 163 0.0 0.0 0.00 0.00 0.00 42 1013.3
20260831200616 98 226 1.0 2.0 0.00 0.00 0.00 42 1013.3
20260831200110 98 208 0.0 7.0 0.00 0.00 0.00 41 1013.3
20260831195606 98 208 0.0 3.0 0.00 0.00 0.00 41 1013.3
20260831195101 98 203 3.0 6.0 0.00 0.00 0.00 41 1013.3
20260831194556 99 178 0.0 1.0 0.00 0.00 0.00 40 1013.3
20260831194055 98 194 0.0 3.0 0.00 0.00 0.00 42 1013.3
20260831193551 98 163 0.0 0.0 0.00 0.00 0.00 41 1013.3
20260831193046 98 106 0.0 1.0 0.00 0.00 0.00 43 1013.2
20260831192541 98 170 0.0 0.0 0.00 0.00 0.00 42 1013.3
20260831192036 97 150 0.0 1.0 0.00 0.00 0.00 42 1013.4
20260831191532 97 208 0.0 0.0 0.00 0.00 0.00 44 1013.5
20260831191028 96 169 0.0 6.0 0.00 0.00 0.00 42 1013.6
20260831190523 97 173 2.0 2.0 0.00 0.00 0.00 41 1013.7
20260831190021 97 215 1.0 2.0 0.00 0.00 0.00 43 1013.6
20260831185518 96 128 0.0 0.0 0.00 0.00 0.00 43 1013.4
20260831185013 96 147 0.0 1.0 0.00 0.00 0.00 43 1013.8
20260831184507 95 151 1.0 3.0 0.00 0.00 0.00 45 1013.8
20260831184002 95 166 1.0 2.0 0.00 0.00 0.00 43 1013.7
20260831183501 95 143 0.0 0.0 0.00 0.00 0.00 45 1013.9
20260831182955 95 150 0.0 5.0 0.00 0.00 0.00 46 1013.9
20260831182450 96 235 2.0 6.0 0.00 0.00 0.00 45 1013.9
20260831181945 95 130 0.0 0.0 0.00 0.00 0.00 47 1014.0
20260831181441 95 122 0.0 0.0 0.00 0.00 0.00 46 1014.0
20260831180935 94 185 2.0 6.0 0.00 0.00 0.00 47 1014.2
20260831180429 94 99 0.0 0.0 0.00 0.00 0.00 47 1014.1
20260831175929 94 103 0.0 0.0 0.00 0.00 0.00 48 1014.2
20260831175425 93 130 0.0 5.0 0.00 0.00 0.00 48 1014.0
20260831174921 93 170 1.0 3.0 0.00 0.00 0.00 48 1014.0
20260831174416 92 194 0.0 3.0 0.00 0.00 0.00 48 1014.0
20260831173916 92 161 0.0 2.0 0.00 0.00 0.00 48 1014.0
20260831173415 92 106 2.0 6.0 0.00 0.00 0.00 49 1014.3
20260831172910 92 197 3.0 5.0 0.00 0.00 0.00 48 1014.0
20260831172406 92 199 1.0 2.0 0.00 0.00 0.00 50 1014.3
20260831171901 92 168 0.0 0.0 0.00 0.00 0.00 50 1014.2
20260831171357 92 143 5.0 7.0 0.00 0.00 0.00 49 1014.3
20260831170854 91 115 1.0 2.0 0.00 0.00 0.00 49 1014.3
20260831170349 93 203 0.0 0.0 0.00 0.00 0.00 47 1014.4
20260831165846 92 130 0.0 0.0 0.00 0.00 0.00 49 1014.3
20260831165342 91 226 1.0 2.0 0.00 0.00 0.00 49 1014.6
20260831164838 91 155 0.0 0.0 0.00 0.00 0.00 51 1014.6
20260831164334 90 218 1.0 2.0 0.00 0.00 0.00 51 1014.4
20260831163829 90 109 0.0 0.0 0.00 0.00 0.00 54 1014.5
20260831163325 88 81 0.0 0.0 0.00 0.00 0.00 57 1014.4
20260831162823 88 152 0.0 0.0 0.00 0.00 0.00 54 1014.5
20260831162319 88 131 0.0 1.0 0.00 0.00 0.00 54 1014.6
20260831161817 88 144 1.0 3.0 0.00 0.00 0.00 54 1014.6
20260831161314 87 116 0.0 2.0 0.00 0.00 0.00 54 1014.5